TimeEDT,TemperatureF,Dew PointF,Humidity,Sea Level PressureIn,VisibilityMPH,Wind Direction,Wind SpeedMPH,Gust SpeedMPH,PrecipitationIn,Events,Conditions,WindDirDegrees,DateUTC
12:53 AM,48.9,39.0,69,30.04,10.0,WNW,6.9,-,N/A,,Clear,290,2013-10-21 04:53:00
1:53 AM,50.0,37.9,63,30.05,10.0,WNW,6.9,-,N/A,,Clear,290,2013-10-21 05:53:00
2:53 AM,48.9,39.9,71,30.06,10.0,WNW,5.8,-,N/A,,Clear,300,2013-10-21 06:53:00
3:53 AM,46.9,37.9,71,30.07,10.0,NW,5.8,-,N/A,,Clear,320,2013-10-21 07:53:00
4:53 AM,46.0,37.0,71,30.08,10.0,NW,5.8,-,N/A,,Clear,320,2013-10-21 08:53:00
5:53 AM,43.0,37.0,80,30.10,10.0,WNW,3.5,-,N/A,,Clear,300,2013-10-21 09:53:00
6:53 AM,43.0,37.0,80,30.11,10.0,WNW,4.6,-,N/A,,Clear,290,2013-10-21 10:53:00
7:53 AM,48.9,39.9,71,30.13,10.0,WNW,3.5,-,N/A,,Clear,290,2013-10-21 11:53:00
8:53 AM,57.9,42.1,56,30.13,10.0,SW,4.6,-,N/A,,Clear,230,2013-10-21 12:53:00
9:53 AM,61.0,43.0,52,30.13,10.0,SW,10.4,-,N/A,,Clear,230,2013-10-21 13:53:00
10:53 AM,62.1,45.0,53,30.13,10.0,SW,12.7,-,N/A,,Clear,230,2013-10-21 14:53:00
11:53 AM,63.0,45.0,52,30.12,10.0,WSW,17.3,21.9,N/A,,Clear,240,2013-10-21 15:53:00
12:53 PM,63.0,48.0,58,30.11,10.0,WSW,12.7,19.6,N/A,,Clear,250,2013-10-21 16:53:00
1:53 PM,63.0,44.1,50,30.10,10.0,WSW,11.5,19.6,N/A,,Clear,240,2013-10-21 17:53:00
2:53 PM,62.1,44.1,52,30.08,10.0,WSW,11.5,-,N/A,,Clear,250,2013-10-21 18:53:00
3:53 PM,61.0,44.1,54,30.08,10.0,WSW,11.5,-,N/A,,Clear,240,2013-10-21 19:53:00
4:53 PM,60.1,45.0,57,30.08,10.0,WSW,10.4,-,N/A,,Clear,240,2013-10-21 20:53:00
5:53 PM,57.0,44.1,62,30.08,10.0,SW,10.4,-,N/A,,Clear,230,2013-10-21 21:53:00
6:53 PM,57.0,43.0,59,30.09,10.0,SW,10.4,-,N/A,,Clear,220,2013-10-21 22:53:00
7:53 PM,57.0,45.0,64,30.09,10.0,SW,10.4,-,N/A,,Clear,220,2013-10-21 23:53:00
8:53 PM,57.0,46.9,69,30.09,10.0,SW,9.2,-,N/A,,Clear,220,2013-10-22 00:53:00
9:53 PM,57.0,50.0,77,30.09,10.0,South,8.1,-,N/A,,Clear,190,2013-10-22 01:53:00
10:53 PM,55.9,50.0,80,30.07,10.0,South,6.9,-,N/A,,Clear,190,2013-10-22 02:53:00
11:53 PM,55.0,51.1,86,30.04,10.0,South,5.8,-,N/A,,Clear,180,2013-10-22 03:53:00